User: anonymous   Login
Location: Unspecified
(0.0000°N, 0.0000°E)
Time: 02:58:22
(UTC+00:00)
Language:

JUGNU - Orbit

View from above orbital plane
View from above orbital plane
View from above satellite
View from above satellite

Ground track
Ground track

The orbit data is extracted from the following two-line orbital elements,

1 37839U 11058B   20185.68858714 +.00000300 +00000-0 +17703-4 0  9993
2 37839 019.9596 184.3081 0018783 206.6896 311.6179 14.12682944451087
Epoch (UTC): 03 July 2020 16:31:33
Eccentricity: 0.0018783
inclination: 19.9596°
perigee height: 836 km
apogee height: 864 km
right ascension of ascending node: 184.3081°
argument of perigee: 206.6896°
revolutions per day: 14.12682944
mean anomaly at epoch: 311.6179°
orbit number at epoch: 45108

The dashed part of the orbit path shows where the satellite is in the earth's shadow,  

DLR